Flag for Switzerland Weather past 2 weeks in Sion, Valais, Switzerland

Now
64 °F

Mild.


Feels Like: 64 °F
Forecast: 60 / 79 °F
Wind: No wind

Location: Sion

Current Time: Aug 27, 2014 at 11:00:13 AM

Latest Report: Aug 27, 2014 at 10:00 AM


Visibility: N/A

Pressure: 29.96 "Hg

Humidity: 81%

Dew point: 58 °F

Location of SionLocation

Historic Weather in Sion — Graph

°F

Sion temperature yesterday

Maximum temperature yesterday: 64 °F (at 5:00 PM)
Minimum temperature yesterday: 55 °F (at 1:00 AM)
Average temperature yesterday: 59 °F

Past Weeks' High & Low Weather Summary

 TemperatureHumidityPressure
High81 °F (Aug 18, 4:00 PM)98% (Aug 27, 1:00 AM)30.22 "Hg (Aug 27, 1:00 AM)
Low47 °F (Aug 17, 7:00 AM)31% (Aug 18, 4:00 PM)29.70 "Hg (Aug 13, 4:00 PM)
Average62 °F68%29.97 "Hg
* Reported Aug 12 9:00 AM — Aug 27 9:00 AM, Sion, Weather by CustomWeather, © 2014

Note: Actual official high and low records may vary slightly from our data, if they occured in-between our weather recording intervals... More about our weather records

Advertising

Sion weather history for previous 24 hours

 ConditionsComfort  
Time TempWeatherWind HumidityBarometerVisibility
9:00 AM
Aug 27
61 °FCool.No wind87%29.96 "HgN/A
8:00 AM59 °FOvercast.No wind96%29.96 "Hg12 mi
7:00 AM58 °FCool.No wind95%29.95 "HgN/A
6:00 AM58 °FCool.1 mph97%29.93 "HgN/A
5:00 AM58 °FCool.1 mph98%29.93 "HgN/A
4:00 AM58 °FCool.1 mph98%29.92 "HgN/A
3:00 AM58 °FCool.2 mph98%29.91 "HgN/A
2:00 AM59 °FPassing clouds.1 mph97%29.89 "Hg12 mi
1:00 AM59 °FCool.2 mph98%29.89 "HgN/A
12:00 AM60 °FCool.1 mph97%29.89 "HgN/A
11:00 PM
Aug 26
60 °FPassing clouds.2 mph97%29.87 "Hg12 mi
10:00 PM62 °FCool.3 mph94%29.86 "HgN/A
9:00 PM62 °FCool.3 mph93%29.85 "HgN/A
8:00 PM62 °FPartly sunny.1 mph93%29.85 "Hg12 mi
7:00 PM63 °FMild.2 mph92%29.83 "HgN/A
6:00 PM63 °FMild.2 mph89%29.84 "HgN/A
5:00 PM64 °FLight rain. Low clouds.2 mph89%29.83 "Hg6 mi
4:00 PM63 °FMild.1 mph88%29.85 "HgN/A
3:00 PM61 °FCool.No wind89%29.88 "HgN/A
2:00 PM60 °FRain. Low clouds.5 mph94%29.88 "Hg6 mi
1:00 PM59 °FCool.1 mph95%29.90 "HgN/A
12:00 PM58 °FCool.3 mph95%29.90 "HgN/A
11:00 AM59 °FHeavy rain. Low clouds.6 mph92%29.90 "Hg6 mi
Weather by CustomWeather, © 2014

See weather overviewHow to use our weather pages